Regional Weather Roundup
Issued by NWS

Home | Current Version | Previous Version | Text Only | Print | Product List | Glossary On
Versions: 1 2 3 4 5 6 7 8 9 10 11 12 13 14 15 16 17 18 19 20 21 22 23 24 25 26 27 28 29 30 31 32 33 34 35 36 37 38 39 40 41 42 43 44 45 46 47 48 49 50
000
ASUS42 KFFC 020403
RWRGA
WEATHER ROUNDUP FOR GEORGIA
NATIONAL WEATHER SERVICE PEACHTREE CITY GA
1200 AM EDT SAT AUG 02 2014

NOTE: "FAIR" INDICATES FEW OR NO CLOUDS BELOW 12,000 FEET WITH NO
SIGNIFICANT WEATHER AND/OR OBSTRUCTIONS TO VISIBILITY.

* = USE WITH CAUTION. THE STATIONS MARKED WITH AN ASTERISK MAY NOT
REPORT WEATHER SUCH AS PRECIPITATION, FOG, OR THUNDER AND ARE NOT
QUALITY CONTROLLED BY NWS.

THE REMARK "TC" DENOTES TEMPERATURE READING IN DEGREES CELSIUS.

GAZ001>058-020500-
NORTH GEORGIA

CITY           SKY/WX    TMP DP  RH WIND       PRES   REMARKS
ATLANTA        CLOUDY    71  65  81 E8        30.09R
ATHENS         CLOUDY    67  63  87 E9        30.10R
CHAMBLEE       CLOUDY    70  62  76 VRB5      30.10R
PEACHTREE CITY MOCLDY    72  67  84 E3        30.09R
ROME           MOCLDY    73  68  84 CALM      30.06R
WEST ATLANTA   MOCLDY    73  65  75 E8        30.09R
GAINESVILLE    MOCLDY    67  62  84 E9        30.14R
CARTERSVILLE   MOCLDY    73  65  75 CALM      30.08R


CITY           SKY/WX    TMP DP  RH WIND       PRES   REMARKS
DALTON*        MOCLDY    70  70 100 CALM      30.07S
MARIETTA       MOCLDY    71  66  85 E7        30.10R
$$

GAZ059>098-102>109-020500-
CENTRAL GEORGIA

CITY           SKY/WX    TMP DP  RH WIND       PRES   REMARKS
AUGUSTA-BUSH   CLOUDY    71  67  87 N6        30.06S
AUGUSTA-DANIEL CLOUDY    70  67  90 N8        30.08S
COLUMBUS       PTCLDY    73  68  84 E5        30.04R
MACON          MOCLDY    70  69  97 N5        30.06R
ROBINS AFB     MOCLDY    71  68  89 N5        30.05R


CITY           SKY/WX    TMP DP  RH WIND       PRES   REMARKS
LAGRANGE*      PTCLDY    74  72  91 CALM      30.06R
SYLVANIA*      MOCLDY    74  74  98 NE3       30.05S
MILLEDGEVILLE* MOCLDY    61  59  94 E5        30.07R
$$

GAZ099>101-110>166-020500-
SOUTH GEORGIA

CITY           SKY/WX    TMP DP  RH WIND       PRES   REMARKS
SAVANNAH       CLOUDY    77  74  90 N5        30.02S
VALDOSTA       MOCLDY    79  73  82 NE5       30.00S
ALMA           CLOUDY    75  73  93 CALM      30.00F FOG
ST SIMONS      PTCLDY    83  75  77 S7        29.99S HX  90
FT STEWART     LGT RAIN  77  75  95 CALM      30.00S
ALBANY         CLEAR     75  70  84 NE6       30.03R
HUNTER AFB     CLOUDY    77  75  94 SE8       29.99F
MOODY AFB      CLOUDY    75  70  83 N6        29.99F
BRUNSWICK      MOCLDY    77  73  88 CALM      30.00S VSB 1/2


CITY           SKY/WX    TMP DP  RH WIND       PRES   REMARKS
BAINBRIDGE*    CLEAR     81  73  78 NE5       30.00R
MOULTRIE*      CLEAR     73  72  94 CALM      30.01S
VIDALIA*         N/A     77  73  88 NE5       30.03R
WAYCROSS*      CLOUDY    79  76  91 E3        29.99S
DOUGLAS*       CLOUDY    77  73  88 NE5       30.01F
$$


USA.gov is the U.S. government's official web portal to all federal, state and local government web resources and services.